This is the latest recevied weather packets stored in our database for station/object KC1OEK-13. If no packets are shown the sender has not sent any weather packets the latest 1 day(s).
| Time | Temp. | Humidity | Pressure | Rain* | Wind** | Luminosity | Snow |
|---|---|---|---|---|---|---|---|
| 1778006514 | 26.11° C | 47% | 1010.1 hPa | 0 mm | 2.68 m/s, 218° | 667 W/m² | - |
| 1778006211 | 26.11° C | 45% | 1010.1 hPa | 0 mm | 4.47 m/s, 212° | 648 W/m² | - |
| 1778005909 | 26.11° C | 45% | 1009.9 hPa | 0 mm | 1.79 m/s, 197° | 656 W/m² | - |
| 1778005605 | 26.11° C | 45% | 1010 hPa | 0 mm | 3.13 m/s, 143° | 655 W/m² | - |
| 1778005302 | 26.67° C | 46% | 1010 hPa | 0 mm | 1.34 m/s, 273° | 698 W/m² | - |
| 1778004998 | 26.11° C | 46% | 1009.9 hPa | 0 mm | 2.68 m/s, 12° | 699 W/m² | - |
| 1778004696 | 26.67° C | 46% | 1009.9 hPa | 0 mm | 1.79 m/s, 169° | 702 W/m² | - |
| 1778004392 | 26.67° C | 46% | 1010 hPa | 0 mm | 1.34 m/s, 225° | 712 W/m² | - |
| 1778004090 | 27.22° C | 43% | 1009.8 hPa | 0 mm | 2.68 m/s, 265° | 717 W/m² | - |
| 1778003785 | 26.67° C | 44% | 1009.7 hPa | 0 mm | 1.79 m/s, 283° | 731 W/m² | - |
| 1778003481 | 27.22° C | 44% | 1010 hPa | 0 mm | 0.89 m/s, 30° | 735 W/m² | - |
| 1778003173 | 26.11° C | 43% | 1009.9 hPa | 0 mm | 1.79 m/s, 265° | 737 W/m² | - |
| 1778002869 | 26.67° C | 44% | 1009.9 hPa | 0 mm | 0.45 m/s, 359° | 739 W/m² | - |
| 1778002566 | 26.11° C | 47% | 1009.9 hPa | 0 mm | 3.58 m/s, 232° | 741 W/m² | - |
| 1778002263 | 26.67° C | 47% | 1010.1 hPa | 0 mm | 0.89 m/s, 327° | 746 W/m² | - |
| 1778001960 | 25.56° C | 45% | 1010.3 hPa | 0 mm | 0.89 m/s, 209° | 744 W/m² | - |
| 1778001657 | 25.56° C | 44% | 1010.2 hPa | 0 mm | 4.47 m/s, 157° | 747 W/m² | - |
| 1778001351 | 26.11° C | 47% | 1010.4 hPa | 0 mm | 1.34 m/s, 303° | 743 W/m² | - |
| 1778001049 | 25.56° C | 50% | 1010.3 hPa | 0 mm | 2.24 m/s, 220° | 751 W/m² | - |
| 1778000745 | 25.56° C | 47% | 1010.3 hPa | 0 mm | 1.34 m/s, 38° | 745 W/m² | - |
| 1778000442 | 25.56° C | 46% | 1010.5 hPa | 0 mm | 1.79 m/s, 29° | 749 W/m² | - |
| 1778000137 | 25.56° C | 48% | 1010.7 hPa | 0 mm | 1.34 m/s, 151° | 746 W/m² | - |
| 1777999833 | 25° C | 50% | 1010.7 hPa | 0 mm | 0.89 m/s, 209° | 746 W/m² | - |
| 1777999529 | 25° C | 46% | 1010.7 hPa | 0 mm | 4.02 m/s, 214° | 737 W/m² | - |
| 1777999227 | 25° C | 50% | 1010.8 hPa | 0 mm | 1.79 m/s, 244° | 741 W/m² | - |
* Rain latest hour (hover to see other rain measurements)
** Current wind speed in m/s (hover to see current wind gust speed)